SWA267 KSAT-KPHX

Flight info

Callsign SWA267
Flight time 2h 3m
Altitude 32000
Route ALISS7 ALISS FST ELP DRRVR PINNG1
Aircraft B38M/M-SDE1FGHILORVWXY/HB1

Departure

Time 2026-04-25 15:39
Airport San Antonio International Airport (KSAT)

Arrival

Time 2026-04-25 17:43
Airport Phoenix Sky Harbor International Airport (KPHX)
Time Latitude Longitude Altitude Speed Heading
2026-04-25 15:13 29.52700 -98.46986 798 ft 0 kts 310°
2026-04-25 15:28 29.52693 -98.46977 804 ft 4 kts 313°
2026-04-25 15:28 29.52673 -98.46956 805 ft 4 kts 326°
2026-04-25 15:28 29.52649 -98.46943 805 ft 4 kts 351°
2026-04-25 15:29 29.52628 -98.46948 805 ft 2 kts 39°
2026-04-25 15:29 29.52624 -98.46952 805 ft 0 kts 40°
2026-04-25 15:32 29.52624 -98.46951 805 ft 0 kts 40°
2026-04-25 15:33 29.52645 -98.46931 805 ft 4 kts 40°
2026-04-25 15:33 29.52671 -98.46906 805 ft 6 kts 40°
2026-04-25 15:33 29.52707 -98.46875 805 ft 7 kts 23°
2026-04-25 15:33 29.52755 -98.46893 805 ft 8 kts 322°
2026-04-25 15:34 29.52812 -98.46905 805 ft 9 kts
2026-04-25 15:34 29.52871 -98.46937 805 ft 10 kts 314°
2026-04-25 15:34 29.52924 -98.47005 805 ft 12 kts 311°
2026-04-25 15:34 29.52943 -98.47030 805 ft 13 kts 311°
2026-04-25 15:35 29.53188 -98.47345 800 ft 24 kts 311°
2026-04-25 15:35 29.53302 -98.47492 800 ft 25 kts 311°
2026-04-25 15:35 29.53421 -98.47647 800 ft 26 kts 312°
2026-04-25 15:36 29.53676 -98.47973 800 ft 24 kts 311°
2026-04-25 15:36 29.53789 -98.48120 800 ft 25 kts 311°
2026-04-25 15:36 29.53908 -98.48273 800 ft 26 kts 312°
2026-04-25 15:37 29.54032 -98.48432 800 ft 27 kts 311°
2026-04-25 15:37 29.54135 -98.48563 800 ft 20 kts 312°
2026-04-25 15:37 29.54189 -98.48599 800 ft 8 kts 355°
2026-04-25 15:37 29.54237 -98.48565 800 ft 9 kts 50°
2026-04-25 15:38 29.54231 -98.48498 800 ft 10 kts 124°
2026-04-25 15:38 29.54134 -98.48373 800 ft 51 kts 131°
2026-04-25 15:38 29.53730 -98.47853 800 ft 121 kts 132°
2026-04-25 15:38 29.53032 -98.46965 855 ft 172 kts 134°
2026-04-25 15:39 29.52162 -98.45891 1287 ft 194 kts 133°
2026-04-25 15:39 29.51251 -98.44751 2195 ft 191 kts 135°
2026-04-25 15:39 29.50323 -98.43561 2845 ft 211 kts 134°
2026-04-25 15:39 29.49437 -98.42157 3529 ft 220 kts 116°
2026-04-25 15:40 29.49086 -98.40350 3753 ft 243 kts 90°
2026-04-25 15:40 29.49152 -98.39686 3815 ft 252 kts 79°
2026-04-25 15:40 29.50725 -98.36738 4253 ft 276 kts 43°
2026-04-25 15:40 29.52224 -98.35389 5042 ft 279 kts 37°
2026-04-25 15:41 29.53914 -98.34248 5625 ft 284 kts 20°
2026-04-25 15:41 29.55858 -98.33913 6107 ft 287 kts 356°
2026-04-25 15:41 29.57776 -98.34532 6617 ft 287 kts 329°
2026-04-25 15:41 29.59249 -98.36039 7196 ft 284 kts 304°
2026-04-25 15:42 29.60386 -98.37893 7856 ft 285 kts 306°
2026-04-25 15:42 29.61563 -98.39729 8531 ft 284 kts 306°
2026-04-25 15:42 29.62721 -98.41524 9194 ft 282 kts 306°
2026-04-25 15:42 29.63891 -98.43333 9843 ft 284 kts 306°
2026-04-25 15:43 29.65074 -98.45154 10538 ft 285 kts 306°
2026-04-25 15:43 29.66267 -98.46991 11158 ft 288 kts 306°
2026-04-25 15:43 29.67473 -98.48846 11804 ft 290 kts 306°
2026-04-25 15:43 29.68682 -98.50707 12464 ft 291 kts 306°
2026-04-25 15:44 29.69895 -98.52578 13111 ft 293 kts 306°
2026-04-25 15:44 29.71115 -98.54458 13770 ft 294 kts 305°
2026-04-25 15:44 29.72339 -98.56346 14361 ft 296 kts 305°
2026-04-25 15:44 29.73577 -98.58256 14947 ft 301 kts 305°
2026-04-25 15:45 29.74871 -98.60250 15232 ft 321 kts 305°
2026-04-25 15:45 29.75771 -98.61640 15384 ft 334 kts 305°
2026-04-25 15:45 29.77197 -98.63845 15585 ft 352 kts 305°
2026-04-25 15:45 29.78196 -98.65354 15782 ft 362 kts 307°
2026-04-25 15:46 29.80358 -98.68391 16515 ft 368 kts 307°
2026-04-25 15:46 29.81981 -98.70687 17121 ft 371 kts 307°
2026-04-25 15:46 29.83612 -98.73003 17758 ft 374 kts 307°
2026-04-25 15:46 29.85257 -98.75340 18357 ft 376 kts 306°
2026-04-25 15:47 29.86907 -98.77688 18878 ft 378 kts 306°
2026-04-25 15:47 29.88568 -98.80048 19423 ft 380 kts 306°
2026-04-25 15:47 29.90250 -98.82417 19943 ft 383 kts 306°
2026-04-25 15:47 29.91942 -98.84804 20458 ft 386 kts 306°
2026-04-25 15:48 29.93645 -98.87209 20977 ft 389 kts 306°
2026-04-25 15:48 29.95361 -98.89632 21478 ft 391 kts 306°
2026-04-25 15:48 29.96205 -98.90825 21724 ft 393 kts 306°
2026-04-25 15:48 29.97913 -98.93240 22227 ft 395 kts 306°
2026-04-25 15:49 29.99655 -98.95704 22729 ft 397 kts 306°
2026-04-25 15:49 30.01410 -98.98188 23199 ft 400 kts 306°
2026-04-25 15:49 30.03174 -99.00687 23634 ft 403 kts 306°
2026-04-25 15:49 30.04949 -99.03203 24056 ft 404 kts 306°
2026-04-25 15:50 30.06721 -99.05716 24499 ft 405 kts 306°
2026-04-25 15:50 30.08501 -99.08243 24910 ft 407 kts 305°
2026-04-25 15:50 30.10262 -99.10803 25328 ft 405 kts 300°
2026-04-25 15:50 30.11481 -99.13712 25727 ft 401 kts 285°
2026-04-25 15:51 30.12275 -99.16804 26069 ft 403 kts 284°
2026-04-25 15:51 30.12793 -99.18861 26292 ft 404 kts 284°
2026-04-25 15:51 30.13814 -99.23058 26806 ft 406 kts 284°
2026-04-25 15:51 30.14561 -99.26204 27168 ft 408 kts 283°
2026-04-25 15:52 30.15304 -99.29372 27528 ft 409 kts 283°
2026-04-25 15:52 30.16048 -99.32563 27878 ft 411 kts 283°
2026-04-25 15:52 30.16783 -99.35720 28220 ft 413 kts 283°
2026-04-25 15:52 30.17528 -99.38930 28548 ft 414 kts 283°
2026-04-25 15:53 30.18274 -99.42147 28885 ft 416 kts 283°
2026-04-25 15:53 30.19024 -99.45385 29278 ft 416 kts 283°
2026-04-25 15:53 30.19770 -99.48607 29777 ft 414 kts 283°
2026-04-25 15:53 30.20511 -99.51813 30218 ft 412 kts 283°
2026-04-25 15:54 30.21247 -99.55000 30657 ft 410 kts 283°
2026-04-25 15:54 30.21979 -99.58175 31104 ft 407 kts 283°
2026-04-25 15:54 30.22706 -99.61336 31547 ft 405 kts 283°
2026-04-25 15:54 30.23429 -99.64478 31783 ft 405 kts 283°
2026-04-25 15:55 30.25625 -99.74096 31819 ft 400 kts 283°
2026-04-25 15:55 30.28481 -99.86543 31824 ft 401 kts 283°
2026-04-25 15:56 30.31339 -99.99070 31812 ft 402 kts 283°
2026-04-25 15:56 30.34164 -100.11594 31788 ft 402 kts 283°
2026-04-25 15:57 30.36988 -100.24122 31789 ft 402 kts 283°
2026-04-25 15:57 30.39783 -100.36605 31824 ft 403 kts 283°
2026-04-25 15:58 30.42589 -100.49174 31879 ft 403 kts 283°
2026-04-25 15:58 30.45383 -100.61754 31912 ft 403 kts 282°
2026-04-25 15:59 30.48167 -100.74353 31923 ft 403 kts 283°
2026-04-25 15:59 30.50932 -100.86964 31906 ft 403 kts 282°
2026-04-25 16:00 30.52775 -100.95389 31858 ft 402 kts 282°
2026-04-25 16:00 30.56430 -101.12127 31883 ft 402 kts 282°
2026-04-25 16:01 30.59154 -101.24723 31899 ft 402 kts 282°
2026-04-25 16:01 30.60507 -101.31020 31788 ft 402 kts 282°
2026-04-25 16:01 30.61886 -101.37314 31792 ft 403 kts 282°
2026-04-25 16:02 30.64549 -101.49852 31790 ft 402 kts 282°
2026-04-25 16:02 30.67248 -101.62472 31785 ft 402 kts 282°
2026-04-25 16:03 30.68653 -101.69082 31788 ft 403 kts 282°
2026-04-25 16:03 30.69994 -101.75415 31779 ft 403 kts 282°
2026-04-25 16:04 30.71329 -101.81731 31791 ft 402 kts 282°
2026-04-25 16:04 30.72657 -101.88029 31787 ft 401 kts 282°
2026-04-25 16:05 30.73984 -101.94337 31772 ft 401 kts 282°
2026-04-25 16:06 30.75968 -102.03798 31780 ft 401 kts 282°
2026-04-25 16:06 30.77279 -102.10074 31763 ft 402 kts 282°
2026-04-25 16:07 30.78603 -102.16426 31755 ft 401 kts 282°
2026-04-25 16:07 30.79908 -102.22703 31758 ft 402 kts 282°
2026-04-25 16:08 30.81219 -102.29028 31765 ft 402 kts 282°
2026-04-25 16:08 30.82526 -102.35348 31758 ft 402 kts 282°
2026-04-25 16:09 30.83829 -102.41664 31760 ft 401 kts 282°
2026-04-25 16:09 30.85128 -102.47982 31753 ft 401 kts 282°
2026-04-25 16:10 30.86421 -102.54284 31780 ft 401 kts 282°
2026-04-25 16:10 30.87713 -102.60592 31822 ft 400 kts 282°
2026-04-25 16:11 30.88994 -102.66867 31854 ft 400 kts 282°
2026-04-25 16:11 30.90279 -102.73170 31896 ft 399 kts 281°
2026-04-25 16:12 30.91557 -102.79460 31930 ft 399 kts 281°
2026-04-25 16:12 30.92834 -102.85755 31930 ft 399 kts 281°
2026-04-25 16:13 30.94109 -102.92062 31760 ft 399 kts 281°
2026-04-25 16:13 30.95474 -102.98332 31758 ft 400 kts 286°
2026-04-25 16:14 30.97228 -103.04493 31753 ft 400 kts 285°
2026-04-25 16:14 30.98936 -103.10666 31761 ft 400 kts 285°
2026-04-25 16:15 31.00636 -103.16854 31755 ft 400 kts 285°
2026-04-25 16:15 31.02328 -103.23025 31760 ft 400 kts 285°
2026-04-25 16:16 31.04006 -103.29161 31759 ft 400 kts 285°
2026-04-25 16:16 31.05703 -103.35378 31762 ft 400 kts 285°
2026-04-25 16:17 31.07376 -103.41519 31777 ft 400 kts 285°
2026-04-25 16:17 31.09057 -103.47703 31837 ft 399 kts 285°
2026-04-25 16:18 31.10725 -103.53851 31814 ft 397 kts 285°
2026-04-25 16:18 31.12388 -103.59997 31815 ft 397 kts 285°
2026-04-25 16:19 31.14050 -103.66147 31811 ft 397 kts 285°
2026-04-25 16:19 31.15711 -103.72312 31803 ft 397 kts 285°
2026-04-25 16:20 31.18182 -103.81501 31793 ft 397 kts 285°
2026-04-25 16:21 31.20661 -103.90752 31761 ft 399 kts 285°
2026-04-25 16:21 31.22317 -103.96951 31776 ft 399 kts 285°
2026-04-25 16:22 31.23969 -104.03144 31778 ft 399 kts 285°
2026-04-25 16:22 31.25619 -104.09346 31789 ft 399 kts 285°
2026-04-25 16:23 31.27263 -104.15538 31783 ft 399 kts 285°
2026-04-25 16:23 31.28904 -104.21730 31809 ft 397 kts 285°
2026-04-25 16:24 31.30519 -104.27836 31781 ft 395 kts 285°
2026-04-25 16:24 31.32141 -104.33987 31779 ft 396 kts 285°
2026-04-25 16:25 31.33765 -104.40152 31785 ft 396 kts 285°
2026-04-25 16:25 31.35381 -104.46304 31776 ft 396 kts 285°
2026-04-25 16:26 31.36993 -104.52456 31778 ft 396 kts 285°
2026-04-25 16:26 31.38606 -104.58620 31773 ft 396 kts 285°
2026-04-25 16:27 31.40213 -104.64780 31781 ft 396 kts 285°
2026-04-25 16:27 31.41818 -104.70942 31779 ft 396 kts 284°
2026-04-25 16:28 31.43420 -104.77106 31774 ft 396 kts 284°
2026-04-25 16:28 31.45018 -104.83267 31774 ft 396 kts 284°
2026-04-25 16:29 31.46612 -104.89436 31826 ft 396 kts 285°
2026-04-25 16:29 31.48199 -104.95574 31776 ft 394 kts 284°
2026-04-25 16:30 31.49782 -105.01721 31776 ft 394 kts 284°
2026-04-25 16:30 31.51360 -105.07862 31775 ft 393 kts 284°
2026-04-25 16:31 31.52934 -105.13998 31773 ft 393 kts 284°
2026-04-25 16:31 31.54241 -105.19106 31775 ft 393 kts 284°
2026-04-25 16:32 31.55810 -105.25247 31774 ft 393 kts 284°
2026-04-25 16:32 31.57376 -105.31391 31779 ft 393 kts 284°
2026-04-25 16:33 31.58937 -105.37529 31763 ft 392 kts 284°
2026-04-25 16:33 31.60493 -105.43662 31768 ft 392 kts 284°
2026-04-25 16:34 31.62046 -105.49797 31771 ft 392 kts 284°
2026-04-25 16:34 31.63596 -105.55931 31768 ft 392 kts 284°
2026-04-25 16:35 31.65146 -105.62080 31785 ft 392 kts 283°
2026-04-25 16:35 31.66688 -105.68211 31763 ft 392 kts 283°
2026-04-25 16:36 31.68231 -105.74361 31766 ft 392 kts 283°
2026-04-25 16:36 31.69768 -105.80501 31770 ft 392 kts 283°
2026-04-25 16:37 31.71304 -105.86649 31765 ft 392 kts 283°
2026-04-25 16:37 31.72838 -105.92803 31767 ft 393 kts 283°
2026-04-25 16:38 31.74369 -105.98957 31787 ft 392 kts 283°
2026-04-25 16:38 31.75884 -106.05057 31838 ft 390 kts 283°
2026-04-25 16:39 31.77401 -106.11179 31882 ft 390 kts 283°
2026-04-25 16:39 31.78917 -106.17308 31935 ft 390 kts 283°
2026-04-25 16:40 31.80428 -106.23434 31982 ft 390 kts 283°
2026-04-25 16:40 31.81764 -106.29602 32008 ft 388 kts 277°
2026-04-25 16:41 31.82599 -106.35882 32026 ft 388 kts 277°
2026-04-25 16:41 31.83829 -106.45274 32008 ft 388 kts 277°
2026-04-25 16:42 31.84645 -106.51542 31998 ft 388 kts 277°
2026-04-25 16:42 31.85459 -106.57823 32007 ft 388 kts 277°
2026-04-25 16:43 31.86268 -106.64094 32024 ft 388 kts 277°
2026-04-25 16:43 31.87068 -106.70322 32016 ft 388 kts 277°
2026-04-25 16:44 31.87873 -106.76605 32027 ft 388 kts 277°
2026-04-25 16:44 31.88672 -106.82877 32008 ft 388 kts 277°
2026-04-25 16:45 31.89469 -106.89149 31781 ft 388 kts 277°
2026-04-25 16:45 31.90262 -106.95422 31802 ft 387 kts 277°
2026-04-25 16:46 31.91053 -107.01703 31799 ft 387 kts 277°
2026-04-25 16:46 31.91707 -107.06916 31796 ft 387 kts 276°
2026-04-25 16:47 31.92623 -107.14237 31799 ft 387 kts 276°
2026-04-25 16:47 31.93397 -107.20460 31810 ft 387 kts 276°
2026-04-25 16:48 31.94173 -107.26719 31806 ft 386 kts 276°
2026-04-25 16:48 31.94946 -107.32989 31816 ft 386 kts 276°
2026-04-25 16:49 31.95716 -107.39254 31834 ft 386 kts 276°
2026-04-25 16:49 31.96481 -107.45506 31828 ft 385 kts 276°
2026-04-25 16:50 31.97244 -107.51760 31849 ft 386 kts 276°
2026-04-25 16:50 31.98002 -107.58006 31868 ft 385 kts 276°
2026-04-25 16:51 31.98757 -107.64255 31890 ft 385 kts 276°
2026-04-25 16:51 31.99382 -107.69454 31896 ft 385 kts 276°
2026-04-25 16:52 32.00258 -107.76756 31902 ft 385 kts 276°
2026-04-25 16:52 32.01003 -107.83003 31839 ft 385 kts 276°
2026-04-25 16:53 32.02115 -107.92371 31842 ft 385 kts 276°
2026-04-25 16:54 32.02847 -107.98574 31839 ft 385 kts 276°
2026-04-25 16:54 32.03581 -108.04816 31844 ft 385 kts 276°
2026-04-25 16:55 32.04313 -108.11069 31861 ft 384 kts 276°
2026-04-25 16:55 32.05040 -108.17310 31843 ft 384 kts 276°
2026-04-25 16:56 32.05765 -108.23560 31855 ft 384 kts 276°
2026-04-25 16:56 32.06486 -108.29800 31856 ft 384 kts 276°
2026-04-25 16:57 32.07200 -108.36006 31842 ft 384 kts 275°
2026-04-25 16:57 32.07914 -108.42248 31867 ft 384 kts 275°
2026-04-25 16:58 32.08625 -108.48479 31882 ft 383 kts 275°
2026-04-25 16:58 32.09331 -108.54705 31909 ft 383 kts 275°
2026-04-25 16:59 32.10035 -108.60934 31918 ft 383 kts 275°
2026-04-25 16:59 32.10734 -108.67146 31941 ft 383 kts 275°
2026-04-25 17:00 32.11432 -108.73380 31941 ft 383 kts 275°
2026-04-25 17:00 32.12124 -108.79594 31841 ft 382 kts 275°
2026-04-25 17:01 32.12815 -108.85816 31839 ft 382 kts 275°
2026-04-25 17:01 32.13502 -108.92040 31839 ft 382 kts 275°
2026-04-25 17:02 32.14185 -108.98254 31838 ft 381 kts 275°
2026-04-25 17:02 32.14866 -109.04467 31842 ft 382 kts 275°
2026-04-25 17:03 32.15541 -109.10651 31839 ft 382 kts 275°
2026-04-25 17:03 32.16217 -109.16874 31849 ft 382 kts 275°
2026-04-25 17:04 32.16891 -109.23104 31842 ft 382 kts 275°
2026-04-25 17:04 32.17621 -109.29319 31860 ft 384 kts 280°
2026-04-25 17:05 32.19011 -109.35401 31838 ft 383 kts 281°
2026-04-25 17:05 32.20961 -109.44542 31846 ft 383 kts 280°
2026-04-25 17:06 32.22246 -109.50647 31863 ft 385 kts 280°
2026-04-25 17:06 32.23528 -109.56749 31847 ft 384 kts 280°
2026-04-25 17:07 32.24812 -109.62881 31840 ft 384 kts 280°
2026-04-25 17:07 32.26090 -109.69003 31838 ft 384 kts 280°
2026-04-25 17:08 32.27369 -109.75140 31846 ft 383 kts 280°
2026-04-25 17:08 32.28639 -109.81251 31857 ft 383 kts 280°
2026-04-25 17:09 32.29907 -109.87368 31855 ft 383 kts 279°
2026-04-25 17:09 32.31173 -109.93492 31865 ft 383 kts 279°
2026-04-25 17:10 32.32436 -109.99615 31895 ft 383 kts 279°
2026-04-25 17:10 32.33684 -110.05688 31868 ft 382 kts 279°
2026-04-25 17:11 32.34937 -110.11799 31901 ft 383 kts 279°
2026-04-25 17:11 32.36189 -110.17915 31889 ft 383 kts 279°
2026-04-25 17:12 32.37440 -110.24048 31911 ft 384 kts 279°
2026-04-25 17:12 32.38691 -110.30196 31736 ft 384 kts 279°
2026-04-25 17:13 32.39316 -110.33272 31524 ft 383 kts 279°
2026-04-25 17:13 32.39518 -110.34265 31478 ft 384 kts 279°
2026-04-25 17:13 32.40560 -110.39411 31145 ft 385 kts 279°
2026-04-25 17:13 32.41186 -110.42504 30960 ft 386 kts 279°
2026-04-25 17:14 32.41811 -110.45597 30751 ft 387 kts 279°
2026-04-25 17:14 32.42435 -110.48693 30582 ft 387 kts 279°
2026-04-25 17:14 32.43060 -110.51795 30384 ft 388 kts 279°
2026-04-25 17:14 32.43684 -110.54896 30091 ft 384 kts 279°
2026-04-25 17:15 32.44305 -110.57984 29041 ft 388 kts 279°
2026-04-25 17:15 32.44917 -110.61031 28547 ft 381 kts 279°
2026-04-25 17:15 32.45518 -110.64025 28337 ft 367 kts 279°
2026-04-25 17:15 32.46099 -110.66925 28109 ft 354 kts 279°
2026-04-25 17:16 32.46681 -110.69700 27956 ft 346 kts 283°
2026-04-25 17:16 32.47778 -110.72283 27450 ft 358 kts 297°
2026-04-25 17:16 32.49187 -110.74724 27023 ft 360 kts 295°
2026-04-25 17:16 32.50548 -110.77230 26689 ft 362 kts 296°
2026-04-25 17:17 32.51936 -110.79723 26218 ft 362 kts 297°
2026-04-25 17:17 32.53334 -110.82202 25864 ft 362 kts 297°
2026-04-25 17:17 32.54739 -110.84673 25461 ft 360 kts 297°
2026-04-25 17:17 32.56121 -110.87102 25047 ft 358 kts 297°
2026-04-25 17:18 32.57507 -110.89528 24684 ft 356 kts 297°
2026-04-25 17:18 32.58900 -110.91968 24395 ft 357 kts 297°
2026-04-25 17:18 32.60291 -110.94405 24086 ft 357 kts 297°
2026-04-25 17:18 32.61677 -110.96836 23769 ft 356 kts 297°
2026-04-25 17:19 32.63066 -110.99272 23424 ft 356 kts 298°
2026-04-25 17:19 32.64450 -111.01701 23042 ft 355 kts 298°
2026-04-25 17:19 32.65828 -111.04123 22729 ft 354 kts 298°
2026-04-25 17:19 32.67208 -111.06549 22380 ft 354 kts 298°
2026-04-25 17:20 32.68123 -111.08157 22153 ft 353 kts 298°
2026-04-25 17:20 32.69513 -111.10602 21809 ft 352 kts 298°
2026-04-25 17:20 32.70881 -111.13013 21493 ft 352 kts 298°
2026-04-25 17:20 32.72229 -111.15386 21166 ft 349 kts 298°
2026-04-25 17:21 32.73575 -111.17758 20852 ft 344 kts 298°
2026-04-25 17:21 32.74900 -111.20097 20508 ft 339 kts 298°
2026-04-25 17:21 32.76212 -111.22415 20146 ft 336 kts 298°
2026-04-25 17:21 32.77508 -111.24706 19851 ft 331 kts 297°
2026-04-25 17:22 32.78795 -111.26983 19554 ft 332 kts 297°
2026-04-25 17:22 32.79649 -111.28493 19350 ft 333 kts 297°
2026-04-25 17:22 32.81374 -111.31547 18946 ft 332 kts 298°
2026-04-25 17:22 32.82659 -111.33824 18629 ft 331 kts 298°
2026-04-25 17:23 32.83941 -111.36097 18319 ft 330 kts 298°
2026-04-25 17:23 32.85203 -111.38335 17990 ft 329 kts 297°
2026-04-25 17:23 32.86474 -111.40591 17643 ft 327 kts 298°
2026-04-25 17:23 32.87733 -111.42826 17334 ft 322 kts 298°
2026-04-25 17:24 32.88968 -111.45020 17035 ft 318 kts 298°
2026-04-25 17:24 32.90185 -111.47184 16808 ft 311 kts 298°
2026-04-25 17:24 32.91424 -111.49271 16515 ft 309 kts 303°
2026-04-25 17:24 32.92770 -111.51242 16234 ft 304 kts 303°
2026-04-25 17:25 32.94083 -111.53186 15969 ft 299 kts 302°
2026-04-25 17:25 32.95371 -111.55108 15707 ft 296 kts 302°
2026-04-25 17:25 32.96657 -111.57034 15469 ft 297 kts 302°
2026-04-25 17:25 32.97943 -111.58964 15196 ft 297 kts 302°
2026-04-25 17:26 32.99220 -111.60884 14923 ft 294 kts 302°
2026-04-25 17:26 33.00483 -111.62784 14651 ft 292 kts 303°
2026-04-25 17:26 33.01746 -111.64685 14390 ft 293 kts 303°
2026-04-25 17:26 33.03010 -111.66590 14125 ft 292 kts 303°
2026-04-25 17:27 33.04265 -111.68481 13868 ft 290 kts 303°
2026-04-25 17:27 33.05508 -111.70356 13534 ft 287 kts 303°
2026-04-25 17:27 33.06740 -111.72216 13238 ft 286 kts 303°
2026-04-25 17:27 33.07562 -111.73450 13050 ft 288 kts 303°
2026-04-25 17:28 33.09229 -111.75952 12630 ft 286 kts 303°
2026-04-25 17:28 33.10461 -111.77803 12383 ft 286 kts 303°
2026-04-25 17:28 33.11690 -111.79649 12132 ft 287 kts 303°
2026-04-25 17:28 33.12931 -111.81515 11859 ft 287 kts 303°
2026-04-25 17:29 33.14172 -111.83382 11607 ft 287 kts 303°
2026-04-25 17:29 33.15412 -111.85249 11329 ft 287 kts 303°
2026-04-25 17:29 33.16659 -111.87126 10906 ft 291 kts 304°
2026-04-25 17:29 33.17924 -111.89032 10455 ft 293 kts 304°
2026-04-25 17:30 33.19181 -111.90926 10037 ft 289 kts 304°
2026-04-25 17:30 33.20416 -111.92789 9617 ft 285 kts 304°
2026-04-25 17:30 33.21641 -111.94638 9178 ft 280 kts 304°
2026-04-25 17:30 33.22836 -111.96441 8784 ft 274 kts 304°
2026-04-25 17:31 33.24009 -111.98209 8437 ft 268 kts 304°
2026-04-25 17:31 33.25153 -111.99934 8149 ft 262 kts 304°
2026-04-25 17:31 33.26271 -112.01620 7906 ft 258 kts 304°
2026-04-25 17:31 33.27378 -112.03290 7635 ft 254 kts 304°
2026-04-25 17:32 33.28467 -112.04934 7410 ft 250 kts 304°
2026-04-25 17:32 33.29542 -112.06557 7172 ft 248 kts 304°
2026-04-25 17:32 33.30541 -112.08190 7043 ft 237 kts 295°
2026-04-25 17:32 33.31232 -112.09929 7027 ft 230 kts 291°
2026-04-25 17:33 33.31895 -112.11671 6993 ft 230 kts 291°
2026-04-25 17:33 33.32551 -112.13385 7005 ft 230 kts 291°
2026-04-25 17:33 33.33216 -112.15113 7084 ft 228 kts 291°
2026-04-25 17:33 33.33870 -112.16838 7062 ft 228 kts 288°
2026-04-25 17:34 33.34177 -112.18666 6992 ft 223 kts 271°
2026-04-25 17:34 33.34256 -112.20522 6980 ft 224 kts 270°
2026-04-25 17:34 33.34317 -112.22383 6873 ft 224 kts 270°
2026-04-25 17:34 33.34374 -112.24242 6727 ft 223 kts 270°
2026-04-25 17:35 33.34426 -112.26101 6578 ft 223 kts 270°
2026-04-25 17:35 33.34482 -112.27947 6379 ft 222 kts 270°
2026-04-25 17:35 33.34537 -112.29791 6177 ft 221 kts 270°
2026-04-25 17:35 33.34595 -112.31591 5953 ft 213 kts 270°
2026-04-25 17:36 33.34742 -112.33319 5709 ft 207 kts 285°
2026-04-25 17:36 33.35568 -112.34703 5443 ft 209 kts 321°
2026-04-25 17:36 33.36934 -112.35278 5217 ft 213 kts 353°
2026-04-25 17:36 33.38408 -112.35234 5073 ft 216 kts
2026-04-25 17:37 33.39768 -112.34526 4802 ft 217 kts 45°
2026-04-25 17:37 33.40494 -112.32997 4562 ft 210 kts 76°
2026-04-25 17:37 33.40799 -112.31309 4334 ft 207 kts 79°
2026-04-25 17:37 33.41114 -112.29628 4138 ft 206 kts 78°
2026-04-25 17:38 33.41447 -112.27967 4010 ft 203 kts 78°
2026-04-25 17:38 33.41670 -112.26874 3985 ft 203 kts 77°
2026-04-25 17:38 33.42129 -112.24678 3986 ft 205 kts 77°
2026-04-25 17:38 33.42487 -112.23028 3996 ft 205 kts 77°
2026-04-25 17:39 33.42748 -112.21364 4049 ft 204 kts 85°
2026-04-25 17:39 33.42858 -112.19684 3785 ft 202 kts 90°
2026-04-25 17:39 33.42890 -112.18045 3553 ft 190 kts 91°
2026-04-25 17:39 33.42891 -112.16490 3322 ft 185 kts 93°
2026-04-25 17:40 33.42888 -112.14966 3076 ft 182 kts 92°
2026-04-25 17:40 33.42890 -112.13456 2866 ft 181 kts 93°
2026-04-25 17:40 33.42890 -112.11985 2652 ft 169 kts 94°
2026-04-25 17:40 33.42886 -112.10588 2446 ft 165 kts 92°
2026-04-25 17:41 33.42895 -112.09214 2244 ft 169 kts 91°
2026-04-25 17:41 33.42895 -112.07845 2022 ft 160 kts 94°
2026-04-25 17:41 33.42900 -112.06534 1809 ft 156 kts 93°
2026-04-25 17:41 33.42904 -112.05245 1630 ft 154 kts 94°
2026-04-25 17:42 33.42889 -112.03983 1378 ft 149 kts 94°
2026-04-25 17:42 33.42892 -112.02749 1175 ft 147 kts 94°
2026-04-25 17:42 33.42884 -112.01634 1130 ft 106 kts 89°
2026-04-25 17:42 33.42885 -112.01036 1131 ft 50 kts 89°
2026-04-25 17:43 33.42944 -112.00775 1129 ft 23 kts 50°
2026-04-25 17:43 33.42999 -112.00650 1133 ft 12 kts 61°
2026-04-25 17:43 33.43066 -112.00623 1135 ft 9 kts
2026-04-25 17:43 33.43128 -112.00623 1135 ft 9 kts 358°
2026-04-25 17:44 33.43195 -112.00582 1134 ft 14 kts 53°
2026-04-25 17:44 33.43214 -112.00466 1131 ft 14 kts 90°
2026-04-25 17:44 33.43215 -112.00344 1129 ft 16 kts 90°
2026-04-25 17:44 33.43215 -112.00209 1132 ft 17 kts 90°
2026-04-25 17:45 33.43215 -112.00056 1133 ft 19 kts 90°
2026-04-25 17:45 33.43214 -112.00001 1129 ft 20 kts 90°
2026-04-25 17:45 33.43220 -111.99827 1131 ft 8 kts 67°
2026-04-25 17:45 33.43260 -111.99802 1123 ft 7 kts 15°
2026-04-25 17:46 33.43299 -111.99786 1124 ft 6 kts 13°
2026-04-25 17:46 33.43338 -111.99784 1124 ft 3 kts
2026-04-25 17:46 33.43356 -111.99761 1119 ft 5 kts 68°
2026-04-25 17:46 33.43361 -111.99742 1119 ft 1 kts 77°
2026-04-25 17:47 33.43362 -111.99736 1119 ft 0 kts 78°
2026-04-25 17:47 33.43362 -111.99734 1120 ft 0 kts 78°